sat.trackr.live / text

‹ back to catalog

STARLINK-37754

NORAD 69201 · 2026-114V

PAYLOAD ACTIVE UNKNOWN

§ Identity

Operator
Country
US
Launch date
2026-05-25
Launch site
AFETR
Launch vehicle
Mass (kg)
RCS (m²)

Purposes: comms

External: N2YO · Heavens-Above · Gunter

§ Orbital elements

Epoch: 2026-09-19T21:18:57.468096Z

Period
93.85 min
Inclination
53.1570°
Eccentricity
0.0001127
Mean motion
15.34410451 rev/d
Perigee alt
461.9 km
Apogee alt
463.4 km
Semi-major
6,840.8 km
B*
7.2468e-4
RAAN
116.4877°
Arg perigee
94.9138°
Mean anomaly
265.1993°
Rev number
1,935

§ Raw data

STARLINK-377541 69201U 26114V   26262.88816514  .00024196  00000+0  72468-3 0  99922 69201  53.1570 116.4877 0001127  94.9138 265.1993 15.34410451 19351

JSON: /api/v1/satellites/69201 · /tle

For live sub-satellite position, see the globe view (requires WebGL).

§ Visibility from observer

Set your observer location to see the next 7 days of passes ≥ 10°. The values pass through the URL so the page stays shareable.

No JS? Fill the form by hand. The geolocation button needs JavaScript.